{"data":{"norad_id":60308,"epoch":"2026-05-25T03:25:55.964640Z","epoch_age_seconds":55878,"freshness":"FRESH","line1":"1 60308U 24133H   26145.14300885  .00000847  00000+0  11850-4 0  9994","line2":"2 60308  53.1588 129.2068 0001161  59.2740 300.8392 15.69705238105741","mean_motion":15.69705238,"eccentricity":0.0001161,"inclination_deg":53.1588,"raan_deg":129.2068,"arg_perigee_deg":59.274,"mean_anomaly_deg":300.8392,"bstar":1.185e-5,"rev_number":10574,"period_min":91.736968517398,"perigee_km":358.95810991191,"apogee_km":360.52264503896,"semimajor_km":6737.8773774754,"source":"CELESTRAK","updated_at":"2026-05-25T13:38:19.229451Z"}}